Flag for Lithuania Weather past 2 weeks in Vilnius, Lithuania

Now
48 °F

Sunny.


Feels Like: 48 °F
Forecast: 41 / 66 °F
Wind: 1 mph from North

Location: Vilnius Airport

Current Time: May 22, 2015 at 10:37:10 PM

Latest Report: May 22, 2015 at 10:20 PM


Visibility: 10 mi

Pressure: 30.18 "Hg

Humidity: 87%

Dew point: 45 °F

Location of VilniusLocation

Historic Weather in Vilnius — Graph

°F

Vilnius temperature yesterday

Maximum temperature yesterday: 63 °F (at 8:50 AM)
Minimum temperature yesterday: 48 °F (at 11:50 PM)
Average temperature yesterday: 55 °F

Past Weeks' High & Low Weather Summary

 TemperatureHumidityPressure
High68 °F (May 19, 6:20 PM)100% (May 9, 3:50 AM)30.30 "Hg (May 9, 3:50 AM)
Low30 °F (May 19, 5:50 AM)34% (May 9, 3:50 PM)29.68 "Hg (May 14, 5:20 PM)
Average51 °F75%29.96 "Hg
* Reported May 7 9:20 PM — May 22 9:20 PM, Vilnius, Weather by CustomWeather, © 2015

Note: Actual official high and low records may vary slightly from our data, if they occured in-between our weather recording intervals... More about our weather records

Advertising

Vilnius weather history for previous 24 hours

 ConditionsComfort  
Time TempWeatherWind HumidityBarometerVisibility
9:20 PM
Fri, May 22
54 °FSunny.1 mph72%30.18 "Hg10 mi
8:50 PM55 °FSunny.1 mph63%30.18 "Hg10 mi
8:20 PM57 °FBroken clouds.1 mph59%30.18 "HgN/A
7:50 PM57 °FBroken clouds.2 mph67%30.18 "HgN/A
7:20 PM57 °FBroken clouds.3 mph59%30.18 "HgN/A
6:50 PM57 °FBroken clouds.5 mph59%30.18 "HgN/A
6:20 PM57 °FBroken clouds.5 mph63%30.18 "HgN/A
5:50 PM59 °FBroken clouds.6 mph63%30.18 "HgN/A
5:20 PM59 °FBroken clouds.5 mph59%30.21 "HgN/A
4:50 PM59 °FBroken clouds.6 mph59%30.21 "HgN/A
4:20 PM57 °FBroken clouds.5 mph63%30.21 "HgN/A
3:50 PM59 °FBroken clouds.8 mph63%30.21 "HgN/A
3:20 PM59 °FBroken clouds.6 mph59%30.21 "HgN/A
2:50 PM57 °FBroken clouds.7 mph72%30.24 "HgN/A
2:20 PM55 °FBroken clouds.6 mph72%30.24 "HgN/A
1:50 PM55 °FBroken clouds.6 mph72%30.24 "HgN/A
1:20 PM54 °FBroken clouds.7 mph82%30.24 "HgN/A
12:50 PM54 °FBroken clouds.6 mph82%30.24 "HgN/A
12:20 PM52 °FCloudy.6 mph88%30.24 "HgN/A
11:50 AM52 °FSprinkles. Cloudy.7 mph88%30.24 "Hg4 mi
11:20 AM50 °FSprinkles. Cloudy.7 mph94%30.24 "Hg2 mi
10:50 AM50 °FSprinkles. Cloudy.7 mph94%30.24 "Hg2 mi
10:20 AM50 °FSprinkles. Mostly cloudy.6 mph88%30.24 "Hg2 mi
9:50 AM50 °FSprinkles. Mostly cloudy.5 mph88%30.24 "Hg2 mi
9:20 AM48 °FSprinkles. Mostly cloudy.5 mph94%30.24 "Hg2 mi
8:50 AM48 °FRain showers. Mostly cloudy.6 mph94%30.24 "Hg2 mi
8:20 AM48 °FBroken clouds.6 mph87%30.24 "HgN/A
7:50 AM48 °FSunny.7 mph87%30.21 "Hg10 mi
7:20 AM48 °FSunny.9 mph87%30.21 "Hg10 mi
6:50 AM48 °FSunny.7 mph87%30.21 "Hg10 mi
6:20 AM48 °FSunny.7 mph87%30.21 "Hg10 mi
5:50 AM48 °FClear.7 mph87%30.18 "Hg10 mi
5:20 AM48 °FClear.8 mph87%30.18 "Hg10 mi
4:50 AM46 °FClear.7 mph93%30.18 "Hg10 mi
4:20 AM48 °FClear.6 mph87%30.18 "Hg10 mi
3:50 AM48 °FClear.7 mph94%30.18 "Hg10 mi
3:20 AM48 °FClear.5 mph94%30.18 "Hg10 mi
2:50 AM46 °FClear.5 mph93%30.18 "Hg10 mi
2:20 AM46 °FClear.6 mph93%30.18 "Hg10 mi
1:50 AM48 °FClear.6 mph87%30.18 "Hg10 mi
1:20 AM48 °FClear.6 mph87%30.18 "Hg10 mi
12:20 AM48 °FClear.7 mph87%30.18 "Hg10 mi
11:50 PM
Thu, May 21
48 °FClear.6 mph87%30.18 "Hg10 mi
11:20 PM50 °FClear.7 mph82%30.18 "Hg10 mi
10:50 PM50 °FPartly cloudy.8 mph82%30.15 "HgN/A
10:20 PM50 °FPartly sunny.8 mph82%30.18 "HgN/A
Weather by CustomWeather, © 2015

See weather overviewHow to use our weather pages